Location: ?????
(37.7324°N, 23.9257°E)
Time: 06:52:27
(UTC+00:00)

Cosmos 372 Rocket - Pass Details

Date: 29 November 2020
Orbit: 737 x 769 km, 74.1° (Epoch: 17 January)

Event Time Altitude Azimuth Distance (km) Brightness Sun altitude
Rises 04:28:13 0° 203° (SSW) 3,157 7.2 -10.1°
Reaches altitude 10° 04:30:34 10° 206° (SSW) 2,237 6.4 -9.6°
Maximum altitude 04:35:36 69° 289° (WNW) 789 3.9 -8.7°
Drops below altitude 10° 04:40:41 10° 13° (NNE) 2,251 6.4 -7.8°
Sets 04:43:03 0° 16° (NNE) 3,180 7.1 -7.3°
